{"data":{"norad_id":40277,"epoch":"2026-09-20T03:29:11.663232Z","epoch_age_seconds":52540,"freshness":"FRESH","line1":"1 40277U 14064A   26263.14527388  .00000093  00000+0  00000+0 0  9992","line2":"2 40277   0.0159 179.9313 0001994   4.0883 280.3374  1.00274009 42529","mean_motion":1.00274009,"eccentricity":0.0001994,"inclination_deg":0.0159,"raan_deg":179.9313,"arg_perigee_deg":4.0883,"mean_anomaly_deg":280.3374,"bstar":0,"rev_number":4252,"period_min":1436.0650525103,"perigee_km":35777.563981545,"apogee_km":35794.379028016,"semimajor_km":42164.108504781,"source":"CELESTRAK","updated_at":"2026-09-20T09:00:35.213214Z"}}